KD2GO Weather Reports


time (UTC)temp
F
wind
direction
speed
knots
gust
knots
rain 1hr
in
rain 24hr
in
rain mn
in
humidity
%
barometer
mb
20260508193000 57 306 3.5 13.0 0.00 0.01 0.01 57 1011.3
20260508191500 57 281 3.5 10.4 0.00 0.01 0.01 60 1011.3
20260508190002 57 263 4.3 8.7 0.00 0.01 0.01 56 1011.5
20260508183000 59 299 4.3 8.7 0.00 0.01 0.01 48 1011.2
20260508180002 59 277 7.0 13.0 0.00 0.01 0.01 46 1011.2
20260508174500 58 280 6.1 13.9 0.00 0.01 0.01 48 1011.3
20260508173001 59 359 6.1 12.2 0.00 0.01 0.01 49 1011.5
20260508164459 57 272 5.2 10.4 0.00 0.01 0.01 53 1011.9
20260508160001 54 272 3.5 7.8 0.00 0.01 0.01 54 1012.5
20260508154500 52 319 4.3 7.0 0.00 0.01 0.01 54 1012.8
20260508151500 51 294 3.5 7.0 0.00 0.01 0.01 55 1013.3
20260508145959 51 288 3.5 9.6 0.00 0.01 0.01 54 1013.3
20260508144459 51 288 3.5 9.6 0.00 0.01 0.01 55 1013.2
20260508142959 51 254 3.5 6.1 0.00 0.01 0.01 57 1012.9
20260508141459 52 278 3.5 7.0 0.00 0.01 0.01 56 1013.0
20260508135959 51 285 3.5 7.0 0.00 0.01 0.01 58 1013.0
20260508134459 52 285 2.6 6.1 0.00 0.01 0.01 57 1013.0
20260508132958 51 309 2.6 7.0 0.00 0.01 0.01 61 1013.0
20260508131458 50 360 3.5 7.8 0.00 0.01 0.01 61 1013.0
20260508125959 49 276 3.5 7.0 0.00 0.01 0.01 65 1013.1
20260508124459 49 309 3.5 7.0 0.00 0.01 0.01 74 1013.1
20260508122958 48 289 1.7 5.2 0.00 0.01 0.01 77 1013.2
20260508121458 47 268 2.6 6.1 0.00 0.01 0.01 80 1012.9
20260508115959 46 282 2.6 6.1 0.00 0.01 0.01 84 1012.7
20260508114459 45 323 1.7 5.2 0.00 0.01 0.01 84 1012.8
20260508112959 44 279 2.6 6.1 0.00 0.01 0.01 79 1013.1
20260508111458 43 279 1.7 3.5 0.00 0.01 0.01 74 1012.8
20260508105959 42 297 1.7 3.5 0.00 0.01 0.01 69 1012.7
20260508104458 41 281 1.7 3.5 0.00 0.01 0.01 66 1012.5
20260508102957 41 317 0.9 2.6 0.00 0.01 0.01 69 1012.3
20260508101457 41 305 0.9 1.7 0.00 0.01 0.01 72 1012.2
20260508095958 40 305 0.9 2.6 0.00 0.01 0.01 73 1012.1
20260508094459 41 305 0.9 3.5 0.00 0.01 0.01 74 1012.0
20260508092959 40 318 0.0 0.9 0.00 0.01 0.01 79 1011.9
20260508091458 41 318 0.0 0.9 0.00 0.01 0.01 80 1011.8
20260508090000 41 318 0.0 0.9 0.00 0.01 0.01 83 1011.8
20260508084458 42 318 0.0 0.9 0.00 0.01 0.01 84 1011.8
20260508082958 42 318 0.0 0.0 0.00 0.01 0.01 85 1011.6
20260508081459 42 318 0.9 3.5 0.00 0.01 0.01 85 1011.4
20260508075957 43 274 0.9 3.5 0.00 0.01 0.01 85 1011.2
20260508072957 44 91 1.7 5.2 0.01 0.01 0.01 84 1010.6
20260508071458 45 89 2.6 6.1 0.01 0.01 0.01 84 1010.7
20260508070000 45 327 3.5 7.8 0.01 0.01 0.01 82 1011.3
20260508064458 47 161 3.5 8.7 0.00 0.05 0.00 79 1011.2
20260508062958 47 312 1.7 7.0 0.00 0.05 0.00 77 1010.9
20260508061458 47 172 2.6 6.1 0.00 0.05 0.00 77 1010.2
20260508055958 47 255 1.7 5.2 0.00 0.08 0.00 75 1010.2
20260508054457 48 81 2.6 7.0 0.00 0.08 0.00 74 1010.0
20260508052957 49 94 1.7 5.2 0.00 0.08 0.00 71 1010.1
20260508051458 49 122 1.7 6.1 0.00 0.08 0.00 70 1010.4
20260508050002 50 288 3.5 8.7 0.00 0.08 0.00 65 1010.4
20260508043000 50 82 0.0 0.9 0.00 0.08 0.00 63 1009.3
20260508041500 50 82 1.7 3.5 0.00 0.08 0.00 64 1008.9
20260508040006 52 82 0.0 0.9 0.00 0.08 0.00 58 1009.0
20260508034502 53 82 0.0 0.0 0.00 0.08 0.08 59 1008.8
20260508033001 54 82 0.0 0.9 0.00 0.08 0.08 53 1008.7
20260508031502 54 82 0.9 5.2 0.00 0.08 0.08 49 1008.7
20260508023000 54 83 2.6 5.2 0.00 0.08 0.08 50 1008.8
20260508021500 54 72 0.9 3.5 0.00 0.08 0.08 51 1009.0
20260508020000 54 72 0.9 2.6 0.00 0.08 0.08 50 1008.8
20260508014500 54 71 0.9 2.6 0.00 0.08 0.08 50 1008.7
20260508013001 54 71 0.0 3.5 0.00 0.08 0.08 49 1008.6
20260508011500 54 105 0.0 2.6 0.00 0.08 0.08 51 1008.5
20260508010000 53 105 0.0 2.6 0.00 0.32 0.08 54 1008.5
20260508004501 53 105 0.0 0.0 0.00 0.32 0.08 57 1008.3
20260508003001 53 105 0.0 2.6 0.00 0.32 0.08 55 1008.1
20260508001501 54 105 0.0 0.9 0.00 0.32 0.08 55 1008.0
20260508000001 55 105 0.0 1.7 0.00 0.32 0.08 53 1007.8
20260507234500 56 39 0.0 0.9 0.00 0.32 0.08 54 1007.7
20260507233001 58 169 0.0 0.9 0.00 0.32 0.08 51 1007.6
20260507231501 58 169 0.0 1.7 0.00 0.32 0.08 48 1007.7
20260507224501 59 122 0.9 2.6 0.00 0.32 0.08 46 1007.4
20260507221501 60 342 1.7 6.1 0.00 0.32 0.08 41 1007.5
20260507220003 60 136 0.9 1.7 0.00 0.32 0.08 42 1007.6
20260507214500 61 295 2.6 7.8 0.00 0.32 0.08 40 1007.5
20260507213000 61 271 2.6 7.0 0.00 0.32 0.08 42 1007.6
20260507211500 60 309 1.7 3.5 0.00 0.32 0.08 42 1007.5
20260507210000 61 253 3.5 8.7 0.00 0.32 0.08 38 1007.5
20260507204500 62 301 1.7 9.6 0.00 0.32 0.08 41 1007.3
20260507203000 62 295 2.6 7.0 0.00 0.32 0.08 40 1007.4
20260507201500 62 298 2.6 7.0 0.00 0.32 0.08 44 1007.5
20260507200000 62 268 1.7 5.2 0.00 0.32 0.08 41 1007.5